Torna al catalogo

NOAA 16 DEB

AttivoSSO
NORAD 41408·DEBRIS·🇺🇸 United States

Lanciato Sep 21, 2000 da Vandenberg Space Force Base

Loading…

Prossimi Passaggi (prossime 24 ore)

TLE

AggiornatoSource: Space-Track

Epoca: Sep 13, 2026, 05:23 UTC

1 41408U 00055KM  26256.22486809  .00002675  00000-0  95828-3 0  9992
2 41408  98.7247 354.8359 0008569 352.3474   7.7579 14.34812423547866

Traccia NOAA 16 DEB in tempo reale con AllMySat

Download on the App Store